This is the latest recevied weather packets stored in our database for station/object WC4PEM-14. If no packets are shown the sender has not sent any weather packets the latest 10 day(s).
| Time | Temp. | Humidity | Pressure | Rain* | Wind** | Luminosity | Snow |
|---|---|---|---|---|---|---|---|
| 1777844434 | 25.56° C | 59% | 1014.8 hPa | 0 mm | - | - | - |
| 1777844320 | 25.56° C | 59% | 1014.9 hPa | 0 mm | - | - | - |
| 1777844291 | 25.56° C | 59% | 1014.8 hPa | 0 mm | - | - | - |
| 1777843991 | 25.56° C | 59% | 1014.9 hPa | 0 mm | - | - | - |
| 1777843691 | 25.56° C | 59% | 1015.1 hPa | 0 mm | - | - | - |
| 1777843562 | 26.11° C | 57% | 1014.9 hPa | 0 mm | - | - | - |
| 1777843391 | 26.11° C | 57% | 1014.9 hPa | 0 mm | - | - | - |
| 1777843182 | 26.11° C | 57% | 1014.9 hPa | 0 mm | - | - | - |
| 1777843091 | 26.11° C | 57% | 1014.9 hPa | 0 mm | - | - | - |
| 1777842885 | 26.11° C | 57% | 1014.8 hPa | 0 mm | - | - | - |
| 1777842791 | 26.11° C | 57% | 1014.8 hPa | 0 mm | - | - | - |
| 1777842605 | 26.11° C | 57% | 1014.9 hPa | 0 mm | - | - | - |
| 1777842491 | 26.11° C | 57% | 1014.9 hPa | 0 mm | - | - | - |
| 1777842284 | 26.11° C | 55% | 1015 hPa | 0 mm | - | - | - |
| 1777842191 | 26.11° C | 55% | 1015 hPa | 0 mm | - | - | - |
| 1777842017 | 26.67° C | 55% | 1015 hPa | 0 mm | - | - | - |
| 1777841891 | 26.67° C | 55% | 1015 hPa | 0 mm | - | - | - |
| 1777841763 | 27.22° C | 53% | 1014.9 hPa | 0 mm | - | - | - |
| 1777841591 | 27.22° C | 53% | 1014.9 hPa | 0 mm | - | - | - |
| 1777841378 | 27.22° C | 53% | 1014.9 hPa | 0 mm | - | - | - |
| 1777841291 | 27.78° C | 53% | 1014.9 hPa | 0 mm | - | - | - |
| 1777841104 | 26.67° C | 54% | 1015.1 hPa | 0 mm | - | - | - |
| 1777840991 | 27.22° C | 53% | 1014.9 hPa | 0 mm | - | - | - |
| 1777840814 | 27.22° C | 53% | 1015.2 hPa | 0 mm | - | - | - |
| 1777840691 | 26.67° C | 54% | 1015.1 hPa | 0 mm | - | - | - |
* Rain latest hour (hover to see other rain measurements)
** Current wind speed in m/s (hover to see current wind gust speed)